Regional Weather Roundup
Issued by NWS

Home | Current Version | Previous Version | Text Only | Print | Product List | Glossary Off
Versions: 1 2 3 4 5 6 7 8 9 10 11 12 13 14 15 16 17 18 19 20 21 22 23 24 25 26 27 28 29 30 31 32 33 34 35 36 37 38 39 40 41 42 43 44 45 46 47 48 49 50

000
ASUS43 KOAX 041310
RWRNE

WEATHER ROUNDUP FOR NEBRASKA
NATIONAL WEATHER SERVICE OMAHA NE
800 AM CDT TUE AUG 04 2015

NOTES: SATELLITE DATA IS BEING USED TO AUGMENT CLOUD COVER ABOVE
       12000 FEET.
       "FAIR" INDICATES FEW OR NO CLOUDS BELOW 12,000 FEET WITH NO
       SIGNIFICANT WEATHER AND/OR OBSTRUCTIONS TO VISIBILITY.

  * THESE STATIONS DO NOT REPORT WEATHER SUCH AS RAIN...SNOW OR FOG.

NEZ001>004-019>022-054>056-041400-
NEBRASKA PANHANDLE

CITY           SKY/WX    TMP DP  RH WIND       PRES   REMARKS
SCOTTSBLUFF    MOSUNNY   61  54  77 CALM      29.99R
ALLIANCE       MOSUNNY   59  55  87 CALM      30.00R
CHADRON        MOSUNNY   59  56  89 SW7       29.96R
KIMBALL        CLOUDY    60  52  73 W8        30.04R
SIDNEY         CLOUDY    58  52  80 NW8       30.04R
$$

NEZ057>060-069>072-079>082-041400-
SOUTHWEST NEBRASKA

CITY           SKY/WX    TMP DP  RH WIND       PRES   REMARKS
NORTH PLATTE   CLOUDY    68  67  96 E20G26    30.00R FOG
IMPERIAL       CLOUDY    67  66  97 E5        29.98R FOG
LEXINGTON      CLOUDY    68  67  96 E14       29.99S FOG
MCCOOK           N/A     67  66  97 E6        29.96R FOG
OGALLALA       CLOUDY    68  67  96 E5        30.00R
$$

NEZ005>010-023>029-035>040-094-041400-
NORTH CENTRAL NEBRASKA

CITY           SKY/WX    TMP DP  RH WIND       PRES   REMARKS
AINSWORTH      CLOUDY    63  61  93 E7        30.03F
BROKEN BOW     CLOUDY    69  60  73 E13       30.02S
O`NEILL        LGT RAIN  64  64  98 N6        30.06F
ORD            PTSUNNY   66  60  81 E9        30.01F
THEDFORD       CLOUDY    65  60  82 E13G22    30.07R
$$

NEZ041-046>049-061>064-073>077-083>087-041400-
SOUTH CENTRAL NEBRASKA

CITY           SKY/WX    TMP DP  RH WIND       PRES   REMARKS
GRAND ISLAND   CLOUDY    69  62  78 E9        30.01S
AURORA         CLOUDY    69  65  88 E10       30.01S
HASTINGS       CLOUDY    68  65  90 E16       30.01R
HEBRON         CLOUDY    71  68  90 NE8       29.98R
HOLDREGE       FOG       68  67  96 E10       29.99S VSB 1/2
KEARNEY *      CLOUDY    66  64  94 E14       30.00S
YORK           CLOUDY    66  63  88 NE9       30.03S
$$

NEZ011>018-030>034-042>045-041400-
NORTHEAST NEBRASKA

CITY           SKY/WX    TMP DP  RH WIND       PRES   REMARKS
NORFOLK        LGT RAIN  65  64  97 S7        30.06R
ALBION         CLOUDY    63  61  94 SE3       30.03F
BLAIR          RAIN      65  62  90 NW5       30.05R
COLUMBUS *     CLOUDY    64  59  82 CALM      30.02R
FREMONT        RAIN      68  65  92 CALM      30.05R
TEKAMAH        CLOUDY    67  64  90 CALM      30.03R
WAYNE          LGT RAIN  66  63  89 CALM      30.03F
$$

NEZ050>053-065>068-078-088>093-041400-
SOUTHEAST NEBRASKA

CITY           SKY/WX    TMP DP  RH WIND       PRES   REMARKS
LINCOLN        TSTM      67  65  93 NE8       30.02F
OMAHA EPPLEY   TSTM      68  65  90 S7        30.01F
BEATRICE       CLOUDY    69  66  91 NE12      29.98S
FALLS CITY     SUNNY     69  67  93 SE6       29.96R
NEBRASKA CITY  PTSUNNY   68  65  90 E7        29.99F
PLATTSMOUTH    CLOUDY    65  64  96 NE6       30.01R
$$

NEZ044-045-051>053-067-041400-
OMAHA AREA

CITY           SKY/WX    TMP DP  RH WIND       PRES   REMARKS
OMAHA EPPLEY   TSTM      68  65  90 S7        30.01F
BLAIR          RAIN      65  62  90 NW5       30.05R
FREMONT        RAIN      68  65  92 CALM      30.05R
MILLARD        CLOUDY    68  65  91 CALM      30.03S
OFFUTT AFB     CLOUDY    66  64  94 E2        30.00R
PLATTSMOUTH    CLOUDY    65  64  96 NE6       30.01R
WAHOO          LGT RAIN  66  64  94 NE3       30.02F
$$



USA.gov is the U.S. government's official web portal to all federal, state and local government web resources and services.